[[{"header":{"parameterUnit":"m.s-1","parameterCategory":1,"la1":30.2991,"la2":30.254,"lo1":-89.0895,"lo2":-89.0444,"dy":0.0017,"dx":0.0017,"nx":28,"ny":28,"refTime":"2026-01-30T03:00:00:Z","depth":0,"parameterNumber":2,"parameterNumberName":"U-component_of_WINDS"},"data":[0,0,0,0,0,0,0,0,0,0,0,0,0,0,0,0,0,0,0,0,0,0,0,0,0,0,0,0,0,0,0,0,0,0,0,0,0,0,0,0,0,0,0,0,0,0,0,0,0,0,0,0,0,0,0,0,0,0,4.9532,4.9533,0,4.9581,4.9581,4.9582,4.9526,4.9524,4.9522,4.952,4.9568,4.9571,4.9574,0,0,0,0,0,0,0,0,0,0,0,0,0,4.9392,4.9395,4.9532,4.9533,4.9534,4.9581,4.9581,4.9582,4.9526,4.9524,4.9521,4.9519,4.9567,4.9571,4.9575,0,0,0,0,0,0,0,0,0,0,0,0,0,4.9448,4.9396,4.9532,4.9511,4.951,4.9581,4.9581,4.9582,4.9527,4.9524,4.9521,4.9518,4.9566,4.957,4.9575,4.9668,0,0,4.959,4.9592,0,0,0,0,0,0,0,0,4.9445,4.9453,4.9514,4.9513,4.9512,4.9544,4.9549,4.9611,4.9528,4.9521,4.952,4.9516,4.9562,4.9567,4.9583,4.967,4.9672,4.959,4.9593,4.9595,4.9597,0,0,0,0,0,0,0,4.9441,4.9451,4.9551,4.9515,4.9513,4.95,4.9504,4.9561,4.9558,4.9521,4.9517,4.9524,4.9561,4.9579,4.9584,4.9673,4.959,4.9594,4.9597,4.9599,4.9841,4.9844,0,0,0,0,0,0,4.9439,4.9448,4.955,4.9553,4.947,4.9505,4.951,4.9537,4.9558,4.9558,4.9526,4.9521,4.9572,4.9578,4.9585,4.9697,4.9595,4.96,4.9603,4.9838,4.9842,4.9846,0,0,0,0,0,0,4.9437,4.9449,4.9548,4.9499,4.9511,4.9511,4.9541,4.9539,4.9557,4.9562,4.9561,4.9545,4.957,4.9579,4.9649,4.9698,4.9602,4.9606,4.9833,4.9839,4.9844,4.992,0,0,0,0,0,0,4.9433,4.9448,4.9483,4.9501,4.9514,4.961,4.9544,4.9543,4.9566,4.9559,4.9579,4.9579,4.9568,4.9642,4.9653,4.9703,4.961,4.9829,4.9836,4.9842,4.9913,4.9927,4.9939,0,0,0,0,0,4.9428,4.9502,4.9485,4.9498,4.9557,4.9613,4.962,4.9607,4.957,4.9605,4.9609,4.9578,4.9691,4.9649,4.9662,4.9714,4.9826,4.9834,4.9842,4.9907,4.9925,4.9939,0,0,0,0,0,0,4.9489,4.9504,4.9485,4.9567,4.959,4.9603,4.9647,4.9625,4.9658,4.965,4.9632,4.9637,4.9711,4.9719,4.9673,4.9806,4.9752,4.9763,4.9798,4.9814,4.9827,4.9824,4.9614,0,0,0,0,0,4.9512,4.9556,4.9567,4.9638,4.965,4.9647,4.9671,4.9659,4.9681,4.969,4.9698,4.9721,4.9761,4.9788,4.9826,4.9914,4.9919,4.9957,4.997,4.998,4.999,5.004,5.0057,4.9872,4.9872,4.9871,0,0,4.956,4.9573,4.9602,4.965,4.9666,4.9713,4.9655,4.9706,4.9741,4.9697,4.9764,4.9772,4.9796,4.9876,4.9912,4.9885,5.0043,4.9991,4.9999,5.0003,5.005,5.0067,5.0083,4.9877,4.9876,4.9875,0,0,4.9671,4.9685,4.9747,4.9765,4.979,4.9789,4.9804,4.9822,4.9826,4.9893,4.9862,4.9903,4.9973,4.9992,5.0011,5.0133,5.0107,5.0146,5.0214,5.0263,5.0278,5.0291,5.0336,5.0352,5.0155,5.0156,5.0156,0,4.9727,4.9796,4.9781,4.9836,4.9859,4.9823,4.9886,4.9904,4.994,4.9957,4.9927,5.0016,5.0029,5.0115,5.0145,5.0161,5.0179,5.0143,5.0277,5.029,5.0302,5.0344,5.0361,5.016,5.016,5.0159,5.0159,0,4.9864,4.9913,4.996,4.9998,5.0026,5.0084,5.0079,5.011,5.0096,5.0098,5.0168,5.0184,5.0225,5.0244,5.0231,5.0329,5.0312,5.028,5.0225,5.0324,5.0364,5.038,5.0167,5.0165,5.0164,5.0163,0,0,5.0012,5.0044,5.0061,5.0079,5.0106,5.0144,5.0202,5.0243,5.027,5.0297,5.0346,5.0408,5.0379,5.0401,5.0389,5.0432,5.053,5.0395,5.0395,5.0421,5.0642,5.0666,5.0685,5.0514,5.0517,5.0519,5.064,0,5.0125,5.0225,5.0216,5.0311,5.0357,5.0326,5.0376,5.0399,5.0403,5.0443,5.0447,5.0491,5.045,5.0463,5.0504,5.051,5.0575,5.0501,5.0559,5.0561,5.0554,5.0705,5.073,5.0843,5.0655,5.0658,5.066,0,5.0268,5.0303,5.0404,5.0426,5.0445,5.0491,5.053,5.0568,5.0594,5.0594,5.062,5.0602,5.0661,5.0606,5.0688,5.0639,5.0662,5.0669,5.0673,5.0678,5.0616,5.0715,5.0879,5.0896,5.0684,5.0682,5.068,0,5.0368,5.0439,5.0509,5.0525,5.0553,5.0587,5.06,5.0623,5.0649,5.0683,5.07,5.0741,5.0763,5.0795,5.0789,5.0749,5.0873,5.0817,5.0875,5.0876,5.0902,5.0901,5.1073,5.0917,5.0917,5.0917,5.0916,0,5.0495,5.0558,5.0555,5.0598,5.0669,5.0658,5.0728,5.0737,5.0758,5.0803,5.0778,5.0821,5.081,5.0853,5.0849,5.0919,5.0928,5.0931,5.0929,5.0933,5.0933,5.0948,5.094,5.0921,5.092,5.0919,5.0918,0,5.0617,5.0618,5.0692,5.0714,5.0721,5.0772,5.0791,5.0832,5.0835,5.0893,5.0905,5.091,5.096,5.0957,5.1012,5.101,5.1096,5.1085,5.1088,5.1085,5.1144,5.1139,5.1333,5.1358,5.1185,5.1187,5.1188,0,5.0698,5.0746,5.0774,5.0803,5.0819,5.0865,5.0893,5.0885,5.0915,5.095,5.0987,5.1035,5.1072,5.1153,5.1161,5.1204,5.1194,5.1259,5.12,5.1204,5.1196,5.1194,5.1199,5.127,5.1272,5.1274,5.1275,0,5.0842,5.084,5.0881,5.0924,5.0958,5.0991,5.102,5.1046,5.1041,5.1076,5.1127,5.1156,5.1214,5.1262,5.1304,5.1318,5.1297,5.1294,5.131,5.1315,5.1315,5.1317,5.112,5.1289,5.1288,5.1287,5.1286,5.1285,5.0946,5.0989,5.1016,5.1063,5.1085,5.1115,5.1155,5.1165,5.1207,5.1254,5.1247,5.1305,5.1332,5.1386,5.1404,5.1449,5.1426,5.1449,5.1455,5.1461,5.1468,5.1308,5.1457,5.1456,5.1456,5.1456,5.1455,0,5.109,5.1106,5.115,5.1194,5.1232,5.121,5.1242,5.1276,5.1327,5.1354,5.1393,5.1452,5.15,5.1513,5.1559,5.1593,5.1584,5.1605,5.1602,5.1606,5.1485,5.1467,5.1611,5.1611,5.1611,5.1611,5.1611,5.1611,5.1169,5.124,5.1243,5.1325,5.1341,5.1398,5.1419,5.1447,5.1469,5.1537,5.1577,5.1586,5.1608,5.1656,5.1699,5.1701,5.172,5.1745,5.1744,5.163,5.1615,5.16,5.1583,5.1749,5.1749,5.1861,5.1862,5.1863]},{"header":{"parameterUnit":"m.s-1","parameterCategory":1,"la1":30.2991,"la2":30.254,"lo1":-89.0895,"lo2":-89.0444,"dy":0.0017,"dx":0.0017,"nx":28,"ny":28,"refTime":"2026-01-30T03:00:00:Z","depth":0,"parameterNumber":3,"parameterNumberName":"V-component_of_WINDS"},"data":[0,0,0,0,0,0,0,0,0,0,0,0,0,0,0,0,0,0,0,0,0,0,0,0,0,0,0,0,0,0,0,0,0,0,0,0,0,0,0,0,0,0,0,0,0,0,0,0,0,0,0,0,0,0,0,0,0,0,-10.7091,-10.7093,0,-10.7279,-10.7281,-10.7283,-10.7239,-10.7236,-10.7232,-10.7229,-10.7413,-10.7421,-10.7429,0,0,0,0,0,0,0,0,0,0,0,0,0,-10.6688,-10.6696,-10.7091,-10.7093,-10.7096,-10.7279,-10.7281,-10.7284,-10.724,-10.7236,-10.7231,-10.7227,-10.7411,-10.742,-10.743,0,0,0,0,0,0,0,0,0,0,0,0,0,-10.6868,-10.6698,-10.7091,-10.7096,-10.7098,-10.7278,-10.7282,-10.7285,-10.7241,-10.7235,-10.723,-10.7225,-10.7407,-10.7419,-10.7432,-10.7615,0,0,-10.7469,-10.7475,0,0,0,0,0,0,0,0,-10.6858,-10.6883,-10.7093,-10.7096,-10.7099,-10.723,-10.7207,-10.7395,-10.7242,-10.7186,-10.7229,-10.7222,-10.7356,-10.7372,-10.7419,-10.7624,-10.7632,-10.7471,-10.7478,-10.7483,-10.7487,0,0,0,0,0,0,0,-10.6846,-10.6875,-10.7165,-10.7096,-10.71,-10.7087,-10.7107,-10.7243,-10.7299,-10.7191,-10.7188,-10.7211,-10.7357,-10.7408,-10.7423,-10.7635,-10.747,-10.7481,-10.7489,-10.7494,-10.8002,-10.8008,0,0,0,0,0,0,-10.6831,-10.6865,-10.7159,-10.7171,-10.6963,-10.7099,-10.7121,-10.7193,-10.7297,-10.7308,-10.7216,-10.7209,-10.7389,-10.7409,-10.743,-10.7654,-10.7483,-10.7495,-10.7502,-10.7996,-10.8003,-10.801,0,0,0,0,0,0,-10.6823,-10.6858,-10.7152,-10.7017,-10.7054,-10.7112,-10.7193,-10.72,-10.7251,-10.7316,-10.7325,-10.7258,-10.7386,-10.7412,-10.7571,-10.7659,-10.75,-10.7512,-10.7989,-10.7998,-10.8007,-10.8102,0,0,0,0,0,0,-10.6812,-10.6855,-10.6927,-10.7019,-10.7061,-10.7292,-10.7199,-10.7208,-10.7273,-10.7266,-10.7358,-10.7368,-10.7383,-10.7553,-10.7583,-10.7673,-10.7521,-10.7981,-10.7993,-10.8004,-10.8091,-10.8113,-10.8132,0,0,0,0,0,-10.6797,-10.6944,-10.6931,-10.6967,-10.7152,-10.7297,-10.732,-10.7337,-10.728,-10.7352,-10.7395,-10.7365,-10.7645,-10.7569,-10.7603,-10.7699,-10.7976,-10.799,-10.8003,-10.8082,-10.8109,-10.8131,0,0,0,0,0,0,-10.6857,-10.6956,-10.6942,-10.7123,-10.7203,-10.7289,-10.738,-10.7365,-10.7459,-10.7448,-10.7462,-10.7484,-10.7646,-10.7688,-10.7602,-10.7883,-10.7802,-10.7823,-10.785,-10.7876,-10.7896,-10.7883,-10.7532,0,0,0,0,0,-10.6892,-10.7003,-10.7082,-10.7234,-10.7275,-10.7321,-10.7385,-10.7392,-10.7473,-10.7505,-10.7559,-10.7637,-10.7743,-10.7811,-10.7912,-10.8097,-10.8117,-10.8179,-10.82,-10.8216,-10.8234,-10.8337,-10.8366,-10.8055,-10.8055,-10.8055,0,0,-10.6963,-10.7031,-10.71,-10.7248,-10.731,-10.7424,-10.7349,-10.7472,-10.7556,-10.7522,-10.7677,-10.772,-10.7807,-10.7981,-10.806,-10.8021,-10.8325,-10.8234,-10.8247,-10.8256,-10.8354,-10.8384,-10.841,-10.8064,-10.8063,-10.8061,0,0,-10.7152,-10.7215,-10.735,-10.7415,-10.7511,-10.7541,-10.7574,-10.7664,-10.7692,-10.7848,-10.7826,-10.7925,-10.8106,-10.8171,-10.8227,-10.8445,-10.8422,-10.8477,-10.8584,-10.8684,-10.8709,-10.873,-10.8809,-10.8837,-10.8495,-10.8495,-10.8495,0,-10.7228,-10.7402,-10.742,-10.7547,-10.7613,-10.7592,-10.7728,-10.7789,-10.7912,-10.7958,-10.7913,-10.8143,-10.82,-10.8389,-10.8443,-10.8489,-10.8526,-10.8467,-10.8704,-10.8726,-10.8747,-10.8822,-10.8852,-10.8501,-10.8501,-10.85,-10.85,0,-10.7491,-10.7612,-10.7709,-10.7833,-10.791,-10.804,-10.8078,-10.8153,-10.8154,-10.8189,-10.8348,-10.8417,-10.8533,-10.8578,-10.8578,-10.8768,-10.8741,-10.87,-10.8619,-10.8782,-10.8853,-10.8882,-10.851,-10.8508,-10.8506,-10.8505,0,0,-10.7721,-10.7857,-10.7892,-10.7949,-10.8056,-10.8148,-10.8278,-10.8394,-10.8459,-10.8545,-10.8654,-10.881,-10.8775,-10.8839,-10.8846,-10.8934,-10.9104,-10.8882,-10.8885,-10.8922,-10.9319,-10.935,-10.9383,-10.909,-10.9095,-10.91,-10.9312,0,-10.7921,-10.8153,-10.8175,-10.8383,-10.8495,-10.8478,-10.8591,-10.8668,-10.8704,-10.8803,-10.8841,-10.8953,-10.8896,-10.8935,-10.9022,-10.9065,-10.9184,-10.905,-10.919,-10.9195,-10.917,-10.942,-10.9452,-10.965,-10.934,-10.9345,-10.9348,0,-10.8184,-10.8283,-10.8503,-10.8597,-10.8644,-10.8746,-10.8856,-10.8951,-10.9038,-10.9058,-10.9132,-10.9129,-10.9262,-10.9176,-10.9359,-10.9268,-10.9326,-10.9357,-10.9365,-10.9378,-10.9282,-10.9441,-10.9713,-10.9743,-10.9392,-10.9388,-10.9385,0,-10.8332,-10.8519,-10.8676,-10.8725,-10.8837,-10.891,-10.896,-10.9042,-10.9111,-10.9206,-10.9251,-10.9359,-10.9419,-10.9502,-10.9528,-10.9463,-10.9711,-10.9626,-10.973,-10.973,-10.9783,-10.9779,-11.0069,-10.982,-10.982,-10.9819,-10.9819,0,-10.8553,-10.8688,-10.8744,-10.884,-10.8992,-10.9016,-10.9164,-10.9209,-10.9283,-10.9387,-10.9377,-10.9475,-10.9503,-10.9605,-10.9625,-10.9774,-10.9801,-10.982,-10.9824,-10.9822,-10.9819,-10.986,-10.9847,-10.9827,-10.9825,-10.9824,-10.9822,0,-10.8743,-10.8786,-10.8956,-10.905,-10.9077,-10.9185,-10.9264,-10.9357,-10.9393,-10.9524,-10.9556,-10.9612,-10.9732,-10.9767,-10.9909,-10.9923,-11.0099,-11.0089,-11.0071,-11.0071,-11.0173,-11.0164,-11.0499,-11.0545,-11.0266,-11.0269,-11.0271,0,-10.8882,-10.8986,-10.9093,-10.9164,-10.9218,-10.9331,-10.9404,-10.9431,-10.9506,-10.9615,-10.9695,-10.9814,-10.9911,-11.0103,-11.0155,-11.0264,-11.0258,-11.0368,-11.0274,-11.0269,-11.0261,-11.0255,-11.0266,-11.0386,-11.0389,-11.0391,-11.0393,0,-10.9124,-10.9141,-10.9246,-10.9362,-10.9449,-10.9539,-10.9626,-10.9684,-10.9724,-10.9809,-10.9934,-11.0009,-11.0158,-11.0276,-11.0388,-11.0436,-11.0422,-11.0423,-11.0453,-11.0451,-11.0437,-11.0447,-11.012,-11.0414,-11.0412,-11.0411,-11.041,-11.0409,-10.9293,-10.9386,-10.9477,-10.9596,-10.9666,-10.9748,-10.9841,-10.989,-10.9995,-11.0121,-11.013,-11.0265,-11.035,-11.05,-11.0555,-11.066,-11.0627,-11.067,-11.0681,-11.0692,-11.0701,-11.042,-11.068,-11.0679,-11.0679,-11.0678,-11.0678,0,-10.9535,-10.9594,-10.9704,-10.9828,-10.9922,-10.9904,-11.0,-11.0079,-11.0199,-11.0281,-11.0379,-11.0522,-11.0638,-11.0701,-11.0816,-11.0888,-11.0884,-11.0917,-11.0912,-11.0924,-11.0723,-11.0686,-11.0918,-11.0918,-11.0918,-11.0918,-11.0918,-11.0918,-10.9673,-10.983,-10.9859,-11.005,-11.0107,-11.0243,-11.0299,-11.0375,-11.0442,-11.0604,-11.0702,-11.0743,-11.0818,-11.0939,-11.1044,-11.1059,-11.1102,-11.1139,-11.1151,-11.0962,-11.0937,-11.0914,-11.088,-11.1148,-11.1149,-11.1342,-11.1344,-11.1346]}]]